KC5EZZ-2 Weather Reports


Display with metric or nautical units.
time (UTC)temp
F
wind
direction
speed
MPH
gust
MPH
rain 1hr
in
rain 24hr
in
rain mn
in
humidity
%
barometer
mb
20260505041246 75 194 11.0 12.0 0.00 0.00 0.00
20260505040746 75 162 14.0 13.0 0.00 0.00 0.00
20260505040246 75 124 11.0 13.0 0.00 0.00 0.00
20260505035846 75 193 12.0 10.0 0.00 0.00 0.00
20260505035744 75 193 12.0 10.0 0.00 0.00 0.00
20260505035359 75 170 11.0 14.0 0.00 0.00 0.00
20260505035244 75 170 11.0 14.0 0.00 0.00 0.00
20260505034745 76 165 11.0 10.0 0.00 0.00 0.00
20260505034242 75 210 11.0 14.0 0.00 0.00 0.00
20260505034002 76 149 12.0 10.0 0.00 0.00 0.00
20260505033743 76 149 12.0 10.0 0.00 0.00 0.00
20260505033243 76 162 11.0 15.0 0.00 0.00 0.00
20260505032741 76 186 12.0 14.0 0.00 0.00 0.00
20260505032241 76 160 12.0 11.0 0.00 0.00 0.00
20260505031742 76 184 11.0 7.0 0.00 0.00 0.00
20260505031239 76 172 12.0 10.0 0.00 0.00 0.00
20260505030740 77 158 11.0 13.0 0.00 0.00 0.00
20260505030240 77 193 9.0 9.0 0.00 0.00 0.00
20260505025738 77 146 8.0 8.0 0.00 0.00 0.00
20260505025238 77 191 10.0 8.0 0.00 0.00 0.00
20260505024739 77 184 13.0 11.0 0.00 0.00 0.00
20260505024236 77 174 9.0 8.0 0.00 0.00 0.00
20260505023737 77 190 10.0 8.0 0.00 0.00 0.00
20260505023237 78 167 10.0 12.0 0.00 0.00 0.00
20260505022734 78 190 9.0 7.0 0.00 0.00 0.00
20260505022235 78 176 10.0 14.0 0.00 0.00 0.00
20260505021735 78 148 14.0 12.0 0.00 0.00 0.00
20260505021233 79 173 10.0 11.0 0.00 0.00 0.00
20260505020733 79 155 10.0 11.0 0.00 0.00 0.00
20260505020234 79 162 12.0 11.0 0.00 0.00 0.00
20260505015731 79 174 9.0 15.0 0.00 0.00 0.00
20260505015232 79 158 8.0 9.0 0.00 0.00 0.00
20260505014732 80 172 10.0 9.0 0.00 0.00 0.00
20260505014230 80 177 10.0 13.0 0.00 0.00 0.00
20260505013730 80 177 8.0 7.0 0.00 0.00 0.00
20260505013231 80 169 8.0 7.0 0.00 0.00 0.00
20260505012728 80 143 9.0 12.0 0.00 0.00 0.00
20260505012229 81 172 10.0 10.0 0.00 0.00 0.00
20260505011729 82 197 10.0 9.0 0.00 0.00 0.00
20260505011227 82 184 9.0 8.0 0.00 0.00 0.00
20260505010227 83 186 10.0 7.0 0.00 0.00 0.00
20260505005226 83 212 12.0 10.0 0.00 0.00 0.00
20260505004726 83 187 11.0 12.0 0.00 0.00 0.00
20260505004224 84 183 12.0 14.0 0.00 0.00 0.00
20260505003724 84 190 13.0 14.0 0.00 0.00 0.00
20260505003225 84 201 8.0 9.0 0.00 0.00 0.00
20260505002722 84 162 9.0 13.0 0.00 0.00 0.00
20260505002223 85 188 10.0 14.0 0.00 0.00 0.00
20260505001723 85 208 9.0 11.0 0.00 0.00 0.00
20260505001221 85 173 10.0 11.0 0.00 0.00 0.00
20260505000721 85 207 10.0 11.0 0.00 0.00 0.00
20260505000221 86 198 11.0 9.0 0.00 0.00 0.00
20260504235219 87 204 12.0 11.0 0.00 0.00 0.00
20260504234720 87 215 10.0 6.0 0.00 0.00 0.00
20260504234217 87 180 12.0 10.0 0.00 0.00 0.00
20260504233718 88 208 9.0 11.0 0.00 0.00 0.00
20260504233218 88 158 15.0 16.0 0.00 0.00 0.00
20260504232716 88 179 12.0 16.0 0.00 0.00 0.00
20260504232216 88 203 16.0 16.0 0.00 0.00 0.00
20260504231716 88 152 9.0 8.0 0.00 0.00 0.00
20260504231214 88 208 13.0 9.0 0.00 0.00 0.00
20260504230714 89 180 13.0 9.0 0.00 0.00 0.00
20260504230214 89 184 13.0 18.0 0.00 0.00 0.00
20260504225712 89 173 14.0 16.0 0.00 0.00 0.00
20260504225212 90 174 15.0 12.0 0.00 0.00 0.00
20260504224712 90 193 14.0 14.0 0.00 0.00 0.00
20260504224210 89 221 15.0 17.0 0.00 0.00 0.00
20260504223710 91 180 9.0 10.0 0.00 0.00 0.00
20260504223211 90 191 16.0 15.0 0.00 0.00 0.00
20260504222708 90 203 13.0 10.0 0.00 0.00 0.00
20260504222208 90 187 13.0 14.0 0.00 0.00 0.00
20260504221709 89 180 12.0 13.0 0.00 0.00 0.00
20260504221206 91 160 13.0 14.0 0.00 0.00 0.00
20260504220707 90 187 15.0 14.0 0.00 0.00 0.00
20260504220207 90 179 14.0 15.0 0.00 0.00 0.00
20260504215705 91 214 11.0 12.0 0.00 0.00 0.00
20260504215205 90 188 14.0 11.0 0.00 0.00 0.00
20260504214706 90 207 13.0 11.0 0.00 0.00 0.00
20260504214203 90 155 13.0 16.0 0.00 0.00 0.00
20260504213703 91 149 11.0 9.0 0.00 0.00 0.00
20260504213204 91 193 10.0 16.0 0.00 0.00 0.00
20260504212701 91 170 13.0 7.0 0.00 0.00 0.00
20260504212201 91 184 12.0 12.0 0.00 0.00 0.00
20260504211702 90 204 14.0 12.0 0.00 0.00 0.00
20260504211159 91 169 15.0 12.0 0.00 0.00 0.00
20260504210659 91 191 12.0 13.0 0.00 0.00 0.00
20260504210200 91 176 13.0 17.0 0.00 0.00 0.00
20260504205657 90 160 13.0 14.0 0.00 0.00 0.00
20260504205158 91 166 12.0 13.0 0.00 0.00 0.00
20260504204658 90 198 13.0 12.0 0.00 0.00 0.00
20260504204155 90 208 13.0 11.0 0.00 0.00 0.00
20260504203656 90 201 11.0 10.0 0.00 0.00 0.00
20260504203156 90 219 10.0 10.0 0.00 0.00 0.00
20260504202654 90 201 11.0 8.0 0.00 0.00 0.00
20260504202153 90 125 9.0 13.0 0.00 0.00 0.00
20260504201653 91 167 14.0 14.0 0.00 0.00 0.00
20260504201418 78 195 13.0 14.0 0.00 0.00 0.00
20260504201151 90 173 8.0 12.0 0.00 0.00 0.00
20260504200651 90 176 10.0 9.0 0.00 0.00 0.00
20260504200151 90 158 10.0 6.0 0.00 0.00 0.00
20260504195649 90 181 14.0 7.0 0.00 0.00 0.00
20260504195149 90 184 9.0 17.0 0.00 0.00 0.00
20260504194649 89 143 7.0 11.0 0.00 0.00 0.00
20260504194147 88 183 11.0 11.0 0.00 0.00 0.00
20260504193647 89 180 9.0 10.0 0.00 0.00 0.00
20260504193148 87 186 11.0 16.0 0.00 0.00 0.00
20260504192658 87 187 12.0 9.0 0.00 0.00 0.00
20260504192645 87 163 10.0 11.0 0.00 0.00 0.00
20260504192145 87 187 12.0 9.0 0.00 0.00 0.00
20260504191646 87 166 10.0 13.0 0.00 0.00 0.00
20260504191143 85 200 9.0 10.0 0.00 0.00 0.00
20260504190644 86 180 10.0 15.0 0.00 0.00 0.00
20260504190144 85 187 11.0 14.0 0.00 0.00 0.00
20260504185641 85 198 13.0 14.0 0.00 0.00 0.00
20260504185142 86 191 12.0 10.0 0.00 0.00 0.00
20260504184642 85 184 11.0 15.0 0.00 0.00 0.00
20260504184139 85 186 12.0 10.0 0.00 0.00 0.00
20260504183640 84 170 11.0 12.0 0.00 0.00 0.00
20260504183140 85 169 10.0 9.0 0.00 0.00 0.00
20260504182638 84 240 11.0 7.0 0.00 0.00 0.00
20260504182138 85 163 12.0 11.0 0.00 0.00 0.00
20260504181639 84 195 12.0 11.0 0.00 0.00 0.00
20260504181136 83 208 15.0 8.0 0.00 0.00 0.00
20260504180637 82 218 15.0 10.0 0.00 0.00 0.00
20260504180137 84 167 12.0 14.0 0.00 0.00 0.00
20260504175634 83 208 11.0 10.0 0.00 0.00 0.00
20260504175135 83 193 12.0 13.0 0.00 0.00 0.00
20260504174635 82 167 9.0 11.0 0.00 0.00 0.00
20260504174133 81 160 12.0 15.0 0.00 0.00 0.00
20260504173630 81 187 11.0 9.0 0.00 0.00 0.00
20260504173131 83 207 12.0 17.0 0.00 0.00 0.00
20260504172628 83 165 11.0 15.0 0.00 0.00 0.00
20260504172129 81 163 10.0 9.0 0.00 0.00 0.00
20260504171630 81 172 9.0 12.0 0.00 0.00 0.00
20260504171127 81 181 9.0 10.0 0.00 0.00 0.00
20260504170627 80 212 12.0 10.0 0.00 0.00 0.00
20260504170128 80 194 12.0 14.0 0.00 0.00 0.00
20260504160120 75 201 11.0 10.0 0.00 0.00 0.00
20260504151112 71 194 17.0 19.0 0.00 0.00 0.00
20260504150612 71 167 16.0 15.0 0.00 0.00 0.00
20260504150113 71 134 13.0 9.0 0.00 0.00 0.00
20260504141104 68 162 12.0 17.0 0.00 0.00 0.00
20260504140605 67 177 15.0 10.0 0.00 0.00 0.00
20260504140105 67 198 10.0 9.0 0.00 0.00 0.00
20260504130558 67 218 7.0 7.0 0.00 0.00 0.00
20260504110544 60 173 6.0 7.0 0.00 0.00 0.00
20260504100538 60 139 0.0 0.0 0.00 0.00 0.00
20260504081528 61 155 6.0 5.0 0.00 0.00 0.00
20260504081026 61 145 4.0 4.0 0.00 0.00 0.00
20260504080526 61 159 3.0 4.0 0.00 0.00 0.00
20260504050507 65 118 5.0 5.0 0.00 0.00 0.00
20260504050007 66 136 6.0 5.0 0.00 0.00 0.00
20260504045505 66 135 6.0 4.0 0.00 0.00 0.00
20260504045005 65 127 5.0 6.0 0.00 0.00 0.00
20260504044505 66 127 5.0 7.0 0.00 0.00 0.00
20260504044003 66 139 4.0 4.0 0.00 0.00 0.00
20260504043503 66 152 4.0 4.0 0.00 0.00 0.00
20260504043004 66 146 5.0 5.0 0.00 0.00 0.00
20260504042501 67 165 4.0 5.0 0.00 0.00 0.00
20260504042002 67 159 4.0 5.0 0.00 0.00 0.00